Location: Ergnies
(50.0854°N, 2.0375°E)
Time: 15:26:36
(UTC+00:00)

Lacrosse 5 rocket - Pass Details

Date: 14 January 2026
Orbit: 400 x 481 km, 57.0° (Epoch: 18 February)

Event Time Altitude Azimuth Distance (km) Brightness Sun altitude
Exits shadow 04:48:32 21° 41° (NE) 1,165 3.3 -27.7°
Drops below altitude 10° 04:49:59 10° 52° (NE) 1,685 4.4 -27.4°
Sets 04:52:15 0° 60° (ENE) 2,569 5.6 -27.1°
